Regional Weather Roundup
Issued by NWS

Home | Current Version | Previous Version | Text Only | Print | Product List | Glossary On
Versions: 1 2 3 4 5 6 7 8 9 10 11 12 13 14 15 16 17 18 19 20 21 22 23 24 25 26 27 28 29 30 31 32 33 34 35 36 37 38 39 40 41 42 43 44 45 46 47 48 49 50
000
ASUS44 KLIX 261713
RWRLA
LOUISIANA WEATHER ROUNDUP
NATIONAL WEATHER SERVICE NEW ORLEANS LA
1200 PM CDT MON JUN 26 2017

NOTE: "FAIR" INDICATES FEW OR NO CLOUDS BELOW 12,000 FEET WITH NO
      SIGNIFICANT WEATHER AND/OR OBSTRUCTIONS TO VISIBILITY.
      SKY/WX - SKY CONDITION AND SIGNIFICANT WEATHER.
      TMP - AIR TEMPERATURE.    DP   - DEWPOINT TEMPERATURE.
      RH  - RELATIVE HUMIDITY.  PRES - PRESSURE.
      HX  - HEAT INDEX.         WCI  - WIND CHILL INDEX.

*  THESE STATIONS ARE NOT NWS OR FAA STATIONS AND ARE NOT UNDER
   NWS QUALITY CONTROL.

LAZ040-048-061>063-065-066-069-261800-
SOUTHEAST LOUISIANA

CITY           SKY/WX    TMP DP  RH WIND       PRES   REMARKS
N.O. INTL ARPT PTSUNNY   83  70  64 NE7       30.11S
N.O. LAKEFRONT CLOUDY    84  67  56 E12       30.11F
N.O. DOWNTOWN*   N/A     82  68  62 VRB5        N/A
RESERVE*       FAIR      85  70  59 E6        30.11F
SLIDELL        PTSUNNY   85  66  53 VRB5      30.11F
BATON ROUGE    CLOUDY    79  67  66 E7        30.12F
BOOTHVILLE     SUNNY     84  74  71 E9        30.10F
BELLE CHASSE   PTSUNNY   84  70  61 E9        30.07F
BOGALUSA*      FAIR      84  63  48 NE6       30.15S
GALLIANO*      CLOUDY    82  71  70 NE7       30.10S
NEW ROADS*       N/A     80  69  68 S3        30.13S
GONZALES*      FAIR      82  69  65 NE6       30.10F
HAMMOND*       CLOUDY    84  63  48 N3        30.12F
HOUMA*         MOSUNNY   84  75  74 E9        30.10S
PORT FOURCHON* PTSUNNY  N/A N/A N/A E12       30.09S

$$

LAZ041-044-053-054-261800-
SOUTHWEST LOUISIANA

CITY           SKY/WX    TMP DP  RH WIND       PRES   REMARKS
LAKE CHARLES   CLOUDY    85  77  77 E9        30.10F HX  95
LAFAYETTE      MOSUNNY   82  73  74 VRB6      30.11F
PATTERSON      CLOUDY    84  75  74 E5        30.10F
SALT POINT       N/A     84  74  71 VRB5      30.08S
NEW IBERIA     CLOUDY    84  71  65 E3        30.11F
CHENAULT AIRPK PTSUNNY   84  73  70 VRB5      30.11S

$$

LAZ027-028-261800-
CENTRAL LOUISIANA

CITY           SKY/WX    TMP DP  RH WIND       PRES   REMARKS
FORT POLK      SUNNY     83  67  57 NE8       30.11F
ALEXANDRIA INT SUNNY     82  66  58 VRB3      30.12F
ALEXANDRIA     SUNNY     82  67  60 NE7       30.13F

$$

LAZ001-002-261800-
NORTHWEST LOUISIANA

CITY           SKY/WX    TMP DP  RH WIND       PRES   REMARKS
SHREVEPORT     PTSUNNY   82  63  52 E5        30.15F
BARKSDALE AFB  SUNNY     82  64  54 E7        30.15F
DTN SHREVEPORT SUNNY     83  65  54 SE8       30.16F

$$

LAZ014-016-261800-
NORTHEAST LOUISIANA

CITY           SKY/WX    TMP DP  RH WIND       PRES   REMARKS
MONROE         SUNNY     82  64  54 NE5       30.17F
TALLULAH       SUNNY     82  62  50 E7        30.16F

$$




USA.gov is the U.S. government's official web portal to all federal, state and local government web resources and services.